Location: Winnipeg
(49.8830°N, 97.1670°W)
Time: 01:48:19
(UTC-06:00)

Tiangong - Visible Passes

Search period start: 28 November 2022 00:00
Search period end: 08 December 2022 00:00
Orbit: 385 x 394 km, 41.5° (Epoch: 28 November)

Date Brightness Start Highest point End Pass type
(mag) Time Alt. Az. Time Alt. Az. Time Alt. Az.
30 Nov 0.8 18:49:10 10° S 18:49:21 10° S 18:49:21 10° S visible
02 Dec 0.2 18:29:03 10° SSW 18:30:58 15° SSE 18:31:11 15° SSE visible
03 Dec 0.5 17:31:52 10° S 17:33:12 12° SSE 17:34:32 10° SE visible
03 Dec 0.6 19:07:08 10° SW 19:08:15 15° SSW 19:08:15 15° SSW visible
04 Dec 0.2 18:09:25 10° SW 18:11:37 17° S 18:13:00 14° SE visible
05 Dec 0.4 17:11:52 10° SSW 17:13:49 15° SSE 17:15:48 10° SE visible
05 Dec 0.2 18:47:52 10° SW 18:50:06 18° S 18:50:06 18° S visible
06 Dec 0.2 17:50:01 10° SW 17:52:18 18° S 17:54:36 10° SE visible
06 Dec 1.2 19:27:03 10° SW 19:27:14 11° SW 19:27:14 11° SW visible
07 Dec 0.4 18:28:47 10° SW 18:30:47 15° SSW 18:32:08 12° SSE visible
